This demonstration page uses our WeatherBlox Daily Observations layout. Learn more.

Left ArrowRight Arrow

Hourly Observations for October 6, 2015

Temp ( °F °C ) Dew Point ( °F °C ) Humidity (%) Winds ( mph kmh ) Pressure ( in mb ) Visibility ( mi km ) Precip ( " mm )
12:15 am 00:15 Clear 52 11.1 48 9 87 87 SE 6 9 30.15 1021 10 16 N/A
12:35 am 00:35 Clear 51 10.6 47 8.5 87 87 SE 6 9 30.15 1021 10 16 N/A
12:55 am 00:55 Clear 51 10.3 47 8.5 89 89 ESE 6 9 30.15 1021 10 16 N/A
1:15 am 01:15 Clear 50 10 47 8.1 88 88 ESE 3 6 30.15 1021 10 16 N/A
1:35 am 01:35 Clear 49 9.6 46 8 90 90 ESE 3 6 30.15 1021 10 16 N/A
1:55 am 01:55 Mostly Cloudy 49 9.3 46 8 92 92 E 3 6 30.15 1021 10 16 N/A
2:15 am 02:15 Cloudy 50 10.1 48 9 93 93 Calm 30.15 1021 10 16 N/A
2:35 am 02:35 Cloudy 51 10.7 49 9.4 92 92 E 5 7 30.15 1021 10 16 N/A
2:55 am 02:55 Cloudy 52 10.9 48 9.1 89 89 E 5 7 30.15 1021 10 16 N/A
3:15 am 03:15 Cloudy 52 11.1 48 9.1 88 88 Calm 30.15 1021 10 16 N/A
3:35 am 03:35 Cloudy 52 11.2 49 9.3 88 88 Calm 30.15 1021 10 16 N/A
3:55 am 03:55 Cloudy 52 11.2 49 9.4 89 89 Calm 30.15 1021 10 16 N/A
4:15 am 04:15 Cloudy 52 11.3 49 9.3 88 88 Calm 30.15 1021 10 16 N/A
4:35 am 04:35 Cloudy 52 11.3 49 9.2 87 87 Calm 30.15 1021 10 16 N/A
4:55 am 04:55 Cloudy 52 11.3 49 9.5 89 89 Calm 30.15 1021 10 16 N/A
5:15 am 05:15 Cloudy 52 11.3 49 9.6 89 89 ENE 3 6 30.15 1021 10 16 N/A
5:35 am 05:35 Cloudy 52 11.3 49 9.6 89 89 Calm 30.15 1021 10 16 N/A
5:55 am 05:55 Cloudy 52 11.3 49 9.6 89 89 Calm 30.15 1021 10 16 N/A
6:15 am 06:15 Cloudy 53 11.5 49 9.7 89 89 Calm 30.12 1020 10 16 N/A
6:35 am 06:35 Cloudy 53 11.5 49 9.7 89 89 Calm 30.12 1020 10 16 N/A
6:55 am 06:55 Cloudy 53 11.5 50 9.8 89 89 E 3 6 30.12 1020 10 16 N/A
7:15 am 07:15 Cloudy 53 11.7 50 10.1 90 90 Calm 30.12 1020 10 16 N/A
7:35 am 07:35 Cloudy 53 11.7 50 10 89 89 Calm 30.12 1020 10 16 N/A
7:55 am 07:55 Cloudy 53 11.9 50 10.1 89 89 Calm 30.15 1021 10 16 N/A
8:15 am 08:15 Cloudy 54 12 50 10.2 89 89 Calm 30.15 1021 10 16 N/A
8:35 am 08:35 Cloudy 54 12.1 50 10.2 88 88 Calm 30.15 1021 10 16 N/A
8:55 am 08:55 Cloudy 55 12.5 51 10.5 88 88 Calm 30.15 1021 10 16 N/A
9:15 am 09:15 Cloudy 55 12.8 51 10.7 87 87 Calm 30.15 1021 10 16 N/A
9:35 am 09:35 Cloudy 55 13 52 11 88 88 Calm 30.15 1021 10 16 N/A
9:55 am 09:55 Cloudy 56 13.5 52 11.1 86 86 Calm 30.18 1022 10 16 N/A
10:15 am 10:15 Cloudy 57 13.7 52 11.2 85 85 Calm 30.18 1022 10 16 N/A
10:35 am 10:35 Cloudy 58 14.2 53 11.5 84 84 Calm 30.18 1022 10 16 N/A
10:55 am 10:55 Cloudy 59 14.8 53 11.9 83 83 Calm 30.15 1021 10 16 N/A
11:15 am 11:15 Cloudy 60 15.3 54 12.1 81 81 S 3 6 30.15 1021 10 16 N/A
11:35 am 11:35 Cloudy 60 15.7 54 12.3 80 80 Calm 30.15 1021 10 16 N/A
11:55 am 11:55 Cloudy 61 15.9 54 12.3 79 79 Calm 30.15 1021 10 16 N/A
12:15 pm 12:15 Cloudy 62 16.5 55 12.6 78 78 Calm 30.15 1021 10 16 N/A
12:35 pm 12:35 Cloudy 63 17 56 13.1 78 78 N 7 11 30.15 1021 10 16 N/A
12:55 pm 12:55 Cloudy 63 17.3 56 13.3 78 78 NNE 5 7 30.15 1021 10 16 N/A
1:15 pm 13:15 Cloudy 64 17.5 56 13.1 76 76 Calm 30.15 1021 7 11 N/A
1:55 pm 13:55 Cloudy 64 18 56 13.3 74 74 Calm 30.15 1021 10 16 N/A
2:15 pm 14:15 Cloudy 65 18.3 56 13.4 73 73 Calm 30.15 1021 10 16 N/A
2:35 pm 14:35 Cloudy 65 18.6 57 13.7 73 73 Calm 30.09 1019 10 16 N/A
2:55 pm 14:55 Cloudy 66 19 57 14 73 73 Calm 30.09 1019 7 11 N/A
3:15 pm 15:15 Cloudy 67 19.5 57 13.7 69 69 Calm 30.09 1019 10 16 N/A
3:35 pm 15:35 Cloudy 67 19.6 57 13.7 69 69 Calm 30.06 1018 7 11 N/A
3:55 pm 15:55 Cloudy 68 20.1 57 13.7 67 67 Calm 30.06 1018 10 16 N/A
4:15 pm 16:15 Cloudy 68 20.2 56 13.6 66 66 Calm 30.06 1018 10 16 N/A
4:35 pm 16:35 Cloudy 69 20.8 58 14.2 66 66 Calm 30.06 1018 10 16 N/A
4:55 pm 16:55 Mostly Cloudy 69 20.6 58 14.2 67 67 Calm 30.06 1018 10 16 N/A
5:15 pm 17:15 Cloudy 70 20.9 57 13.8 64 64 Calm 30.06 1018 10 16 N/A
5:35 pm 17:35 Cloudy 69 20.4 59 15.1 72 72 NNE 3 6 30.06 1018 10 16 N/A
5:55 pm 17:55 Cloudy 69 20.3 59 15.2 73 73 Calm 30.06 1018 10 16 N/A
6:15 pm 18:15 Cloudy 69 20.3 60 15.3 73 73 Calm 30.06 1018 10 16 N/A
6:35 pm 18:35 Cloudy 67 19.6 59 15.2 76 76 ENE 5 7 30.06 1018 10 16 N/A
6:55 pm 18:55 Cloudy with Haze 66 18.9 60 15.4 80 80 E 5 7 30.06 1018 2 2 N/A
7:15 pm 19:15 Cloudy with Haze 65 18.3 59 15 81 81 ENE 6 9 30.06 1018 2 2 N/A
7:35 pm 19:35 Cloudy with Haze 64 17.7 58 14.5 82 82 ENE 6 9 30.06 1018 2 3 N/A
7:55 pm 19:55 Cloudy with Haze 63 17.2 58 14.6 85 85 ENE 5 7 30.09 1019 1 2 N/A
8:15 pm 20:15 Cloudy 62 16.7 58 14.4 86 86 E 5 7 30.09 1019 7 11 N/A
8:35 pm 20:35 Cloudy 62 16.8 58 14.5 86 86 E 6 9 30.09 1019 7 11 N/A
8:55 pm 20:55 Cloudy 62 16.5 58 14.3 87 87 E 5 7 30.09 1019 10 16 N/A
9:15 pm 21:15 Cloudy 61 16.1 57 14.1 88 88 ENE 5 7 30.09 1019 10 16 N/A
9:35 pm 21:35 Cloudy 61 16.1 58 14.2 89 89 E 5 7 30.09 1019 10 16 N/A
9:55 pm 21:55 Cloudy 61 16.3 58 14.2 87 87 Calm 30.12 1020 10 16 N/A
10:15 pm 22:15 Cloudy 62 16.5 58 14.2 86 86 Calm 30.12 1020 10 16 N/A
10:35 pm 22:35 Cloudy 61 16.3 58 14.5 89 89 Calm 30.12 1020 10 16 N/A
10:55 pm 22:55 Cloudy 61 16.3 58 14.4 89 89 Calm 30.12 1020 10 16 N/A
11:15 pm 23:15 Cloudy 61 16.2 58 14.5 90 90 ENE 5 7 30.12 1020 10 16 N/A
11:35 pm 23:35 Cloudy 61 16.3 58 14.6 90 90 Calm 30.12 1020 10 16 N/A
11:55 pm 23:55 Cloudy 61 16.2 58 14.5 90 90 Calm 30.12 1020 10 16 N/A

Powered by AerisWeather